Time,TemperatureF,DewpointF,PressureIn,WindDirection,WindDirectionDegrees,WindSpeedMPH,WindSpeedGustMPH,Humidity,HourlyPrecipIn,Conditions,Clouds,dailyrainin,SoftwareType,DateUTC
2013-02-25 00:00:00,43.6,31.5,30.07,WNW,301,0.0,1.0,62,0.00,,SKC,0.00,VWS V14.01,2013-02-25 08:00:00,
2013-02-25 00:03:00,43.4,31.7,30.07,WNW,301,0.0,1.0,63,0.00,,SKC,0.00,VWS V14.01,2013-02-25 08:03:00,
2013-02-25 00:08:00,43.5,31.8,30.07,WNW,301,0.0,1.0,63,0.00,,SKC,0.00,VWS V14.01,2013-02-25 08:08:00,
2013-02-25 00:10:00,43.5,31.8,30.07,WNW,301,0.0,1.0,63,0.00,,SKC,0.00,VWS V14.01,2013-02-25 08:10:00,
2013-02-25 00:13:00,43.6,31.5,30.07,WNW,301,0.0,2.0,62,0.00,,SKC,0.00,VWS V14.01,2013-02-25 08:13:00,
2013-02-25 00:18:00,43.9,31.7,30.07,WNW,301,1.0,2.0,62,0.00,,SKC,0.00,VWS V14.01,2013-02-25 08:18:00,
2013-02-25 00:20:00,43.9,31.7,30.07,WNW,301,1.0,2.0,62,0.00,,SKC,0.00,VWS V14.01,2013-02-25 08:20:00,
2013-02-25 00:23:00,44.3,31.7,30.07,WNW,301,1.0,2.0,61,0.00,,SKC,0.00,VWS V14.01,2013-02-25 08:23:00,
2013-02-25 00:29:00,44.6,32.0,30.07,WNW,301,0.0,2.0,61,0.00,,SKC,0.00,VWS V14.01,2013-02-25 08:29:00,
2013-02-25 00:30:00,44.6,32.0,30.07,WNW,301,0.0,2.0,61,0.00,,SKC,0.00,VWS V14.01,2013-02-25 08:30:00,
2013-02-25 00:34:00,45.0,32.0,30.07,WNW,301,4.0,4.0,60,0.00,,SKC,0.00,VWS V14.01,2013-02-25 08:34:00,
2013-02-25 00:39:00,45.5,32.4,30.07,North,354,0.0,4.0,60,0.00,,SKC,0.00,VWS V14.01,2013-02-25 08:39:00,
2013-02-25 00:40:00,45.5,32.4,30.07,North,354,0.0,4.0,60,0.00,,SKC,0.00,VWS V14.01,2013-02-25 08:40:00,
2013-02-25 00:44:00,45.9,32.4,30.07,NNE,29,2.0,3.0,59,0.00,,SKC,0.00,VWS V14.01,2013-02-25 08:44:00,
2013-02-25 00:49:00,46.1,32.6,30.07,East,85,0.0,0.0,59,0.00,,SKC,0.00,VWS V14.01,2013-02-25 08:49:00,
2013-02-25 00:50:00,46.3,32.8,30.07,ESE,109,1.0,3.0,59,0.00,,BKN110,0.00,VWS V14.01,2013-02-25 08:50:00,
2013-02-25 00:54:00,46.3,32.8,30.07,East,91,2.0,5.0,59,0.00,,SKC,0.00,VWS V14.01,2013-02-25 08:54:00,
2013-02-25 00:59:00,46.4,32.9,30.07,ESE,105,2.0,2.0,59,0.00,,SKC,0.00,VWS V14.01,2013-02-25 08:59:00,
2013-02-25 01:00:00,46.4,32.9,30.07,ESE,105,1.0,5.0,59,0.00,,SKC,0.00,VWS V14.01,2013-02-25 09:00:00,
2013-02-25 01:04:00,46.5,32.5,30.07,ESE,111,1.0,3.0,58,0.00,,SKC,0.00,VWS V14.01,2013-02-25 09:04:00,
2013-02-25 01:09:00,46.7,32.7,30.07,ESE,110,2.0,2.0,58,0.00,,SKC,0.00,VWS V14.01,2013-02-25 09:09:00,
2013-02-25 01:10:00,46.7,32.7,30.07,ESE,110,0.0,4.0,58,0.00,,SKC,0.00,VWS V14.01,2013-02-25 09:10:00,
2013-02-25 01:14:00,46.7,32.7,30.07,ESE,109,1.0,4.0,58,0.00,,SKC,0.00,VWS V14.01,2013-02-25 09:14:00,
2013-02-25 01:19:00,46.7,32.7,30.07,ESE,109,2.0,2.0,58,0.00,,SKC,0.00,VWS V14.01,2013-02-25 09:19:00,
2013-02-25 01:20:00,46.7,32.7,30.07,ESE,109,0.0,4.0,58,0.00,,SKC,0.00,VWS V14.01,2013-02-25 09:20:00,
2013-02-25 01:24:00,46.7,32.7,30.07,ESE,114,0.0,3.0,58,0.00,,SKC,0.00,VWS V14.01,2013-02-25 09:24:00,
2013-02-25 01:29:00,46.6,32.6,30.07,East,96,1.0,1.0,58,0.00,,SKC,0.00,VWS V14.01,2013-02-25 09:29:00,
2013-02-25 01:30:00,46.7,33.2,30.07,ESE,105,0.0,3.0,59,0.00,,BKN110,0.00,VWS V14.01,2013-02-25 09:30:00,
2013-02-25 01:34:00,46.6,33.0,30.07,ESE,110,4.0,4.0,59,0.00,,SKC,0.00,VWS V14.01,2013-02-25 09:34:00,
2013-02-25 01:39:00,46.5,33.0,30.07,ESE,110,0.0,2.0,59,0.00,,SKC,0.00,VWS V14.01,2013-02-25 09:39:00,
2013-02-25 01:40:00,46.5,33.0,30.07,ESE,110,2.0,4.0,59,0.00,,SKC,0.00,VWS V14.01,2013-02-25 09:40:00,
2013-02-25 01:44:00,46.4,32.9,30.07,ESE,108,1.0,3.0,59,0.00,,SKC,0.00,VWS V14.01,2013-02-25 09:44:00,
2013-02-25 01:49:00,46.3,32.8,30.07,ESE,109,1.0,1.0,59,0.00,,SKC,0.00,VWS V14.01,2013-02-25 09:49:00,
2013-02-25 01:50:00,46.9,33.3,30.08,East,98,2.0,4.0,59,0.00,,BKN110,0.00,VWS V14.01,2013-02-25 09:50:00,
2013-02-25 01:54:00,46.4,32.9,30.07,ESE,106,0.0,3.0,59,0.00,,SKC,0.00,VWS V14.01,2013-02-25 09:54:00,
2013-02-25 01:59:00,46.4,32.9,30.07,ESE,110,5.0,5.0,59,0.00,,SKC,0.00,VWS V14.01,2013-02-25 09:59:00,
2013-02-25 02:00:00,46.4,32.9,30.07,ESE,106,1.0,3.0,59,0.00,,SKC,0.00,VWS V14.01,2013-02-25 10:00:00,
2013-02-25 02:04:00,46.5,33.0,30.07,ESE,108,2.0,5.0,59,0.00,,SKC,0.00,VWS V14.01,2013-02-25 10:04:00,
2013-02-25 02:09:00,46.5,33.0,30.07,East,100,1.0,2.0,59,0.00,,SKC,0.00,VWS V14.01,2013-02-25 10:09:00,
2013-02-25 02:10:00,46.5,33.0,30.07,East,101,1.0,5.0,59,0.00,,SKC,0.00,VWS V14.01,2013-02-25 10:10:00,
2013-02-25 02:14:00,46.6,33.0,30.07,SE,129,0.0,4.0,59,0.00,,SKC,0.00,VWS V14.01,2013-02-25 10:14:00,
2013-02-25 02:19:00,46.7,33.2,30.07,ESE,104,0.0,3.0,59,0.00,,SKC,0.00,VWS V14.01,2013-02-25 10:19:00,
2013-02-25 02:20:00,46.7,33.2,30.07,ESE,111,2.0,4.0,59,0.00,,SKC,0.00,VWS V14.01,2013-02-25 10:20:00,
2013-02-25 02:24:00,46.7,33.2,30.07,ESE,105,0.0,3.0,59,0.00,,SKC,0.00,VWS V14.01,2013-02-25 10:24:00,
2013-02-25 02:29:00,46.6,33.0,30.07,ESE,105,1.0,2.0,59,0.00,,SKC,0.00,VWS V14.01,2013-02-25 10:29:00,
2013-02-25 02:30:00,46.7,33.2,30.07,ESE,105,0.0,3.0,59,0.00,,SKC,0.00,VWS V14.01,2013-02-25 10:30:00,
2013-02-25 02:34:00,46.7,33.2,30.07,ESE,105,0.0,2.0,59,0.00,,SKC,0.00,VWS V14.01,2013-02-25 10:34:00,
2013-02-25 02:40:00,46.7,33.2,30.07,ESE,106,1.0,2.0,59,0.00,,SKC,0.00,VWS V14.01,2013-02-25 10:40:00,
2013-02-25 02:45:00,46.8,33.2,30.08,ESE,118,0.0,4.0,59,0.00,,SKC,0.00,VWS V14.01,2013-02-25 10:45:00,
2013-02-25 02:50:00,46.9,33.3,30.08,ESE,102,0.0,4.0,59,0.00,,SKC,0.00,VWS V14.01,2013-02-25 10:50:00,
2013-02-25 02:55:00,47.0,33.4,30.08,ESE,106,2.0,5.0,59,0.00,,SKC,0.00,VWS V14.01,2013-02-25 10:55:00,
2013-02-25 03:00:00,47.0,33.4,30.07,East,100,0.0,4.0,59,0.00,,SKC,0.00,VWS V14.01,2013-02-25 11:00:00,
2013-02-25 03:05:00,47.0,33.4,30.07,East,90,2.0,4.0,59,0.00,,SKC,0.00,VWS V14.01,2013-02-25 11:05:00,
2013-02-25 03:10:00,47.0,33.8,30.07,East,91,3.0,3.0,60,0.00,,SKC,0.00,VWS V14.01,2013-02-25 11:10:00,
2013-02-25 03:15:00,47.2,33.6,30.07,East,101,1.0,5.0,59,0.00,,SKC,0.00,VWS V14.01,2013-02-25 11:15:00,
2013-02-25 03:20:00,47.4,33.8,30.07,East,84,2.0,5.0,59,0.00,,SKC,0.00,VWS V14.01,2013-02-25 11:20:00,
2013-02-25 03:25:00,47.8,33.8,30.07,East,90,1.0,5.0,58,0.00,,SKC,0.00,VWS V14.01,2013-02-25 11:25:00,
2013-02-25 03:30:00,48.1,34.0,30.07,East,90,0.0,4.0,58,0.00,,SKC,0.00,VWS V14.01,2013-02-25 11:30:00,
2013-02-25 03:35:00,48.2,34.1,30.07,East,90,0.0,4.0,58,0.00,,SKC,0.00,VWS V14.01,2013-02-25 11:35:00,
2013-02-25 03:40:00,48.5,34.0,30.07,East,93,3.0,3.0,57,0.00,,SKC,0.00,VWS V14.01,2013-02-25 11:40:00,
2013-02-25 03:45:00,48.8,34.3,30.07,East,87,3.0,5.0,57,0.00,,SKC,0.00,VWS V14.01,2013-02-25 11:45:00,
2013-02-25 03:50:00,49.0,34.5,30.07,East,93,3.0,3.0,57,0.00,,SKC,0.00,VWS V14.01,2013-02-25 11:50:00,
2013-02-25 03:55:00,49.1,34.5,30.07,East,92,2.0,3.0,57,0.00,,SKC,0.00,VWS V14.01,2013-02-25 11:55:00,
2013-02-25 04:00:00,49.1,35.0,30.07,ESE,112,4.0,5.0,58,0.00,,SKC,0.00,VWS V14.01,2013-02-25 12:00:00,
2013-02-25 04:05:00,49.2,35.1,30.07,East,96,0.0,5.0,58,0.00,,SKC,0.00,VWS V14.01,2013-02-25 12:05:00,
2013-02-25 04:10:00,49.3,35.2,30.07,East,91,3.0,4.0,58,0.00,,SKC,0.00,VWS V14.01,2013-02-25 12:10:00,
2013-02-25 04:15:00,49.2,35.1,30.07,East,88,3.0,6.0,58,0.00,,SKC,0.00,VWS V14.01,2013-02-25 12:15:00,
2013-02-25 04:20:00,49.2,35.1,30.07,East,99,6.0,8.0,58,0.00,,SKC,0.00,VWS V14.01,2013-02-25 12:20:00,
2013-02-25 04:25:00,49.2,35.1,30.07,ENE,74,0.0,8.0,58,0.00,,SKC,0.00,VWS V14.01,2013-02-25 12:25:00,
2013-02-25 04:30:00,49.2,35.1,30.06,East,99,2.0,5.0,58,0.00,,SKC,0.00,VWS V14.01,2013-02-25 12:30:00,
2013-02-25 04:35:00,49.2,35.1,30.06,ENE,75,3.0,5.0,58,0.00,,SKC,0.00,VWS V14.01,2013-02-25 12:35:00,
2013-02-25 04:40:00,49.2,35.1,30.06,East,98,0.0,4.0,58,0.00,,SKC,0.00,VWS V14.01,2013-02-25 12:40:00,
2013-02-25 04:46:00,49.3,35.2,30.06,East,97,0.0,4.0,58,0.00,,SKC,0.00,VWS V14.01,2013-02-25 12:46:00,
2013-02-25 04:50:00,49.3,35.2,30.06,ESE,104,2.0,4.0,58,0.00,,SKC,0.00,VWS V14.01,2013-02-25 12:50:00,
2013-02-25 04:51:00,49.4,35.3,30.06,East,101,1.0,4.0,58,0.00,,SKC,0.00,VWS V14.01,2013-02-25 12:51:00,
2013-02-25 04:56:00,49.5,35.3,30.06,East,95,1.0,4.0,58,0.00,,SKC,0.00,VWS V14.01,2013-02-25 12:56:00,
2013-02-25 05:00:00,49.5,35.3,30.05,East,97,0.0,4.0,58,0.00,,SKC,0.00,VWS V14.01,2013-02-25 13:00:00,
2013-02-25 05:02:00,49.4,35.3,30.05,East,91,0.0,4.0,58,0.00,,SKC,0.00,VWS V14.01,2013-02-25 13:02:00,
2013-02-25 05:07:00,49.3,35.2,30.05,ESE,104,0.0,5.0,58,0.00,,SKC,0.00,VWS V14.01,2013-02-25 13:07:00,
2013-02-25 05:10:00,46.3,34.8,30.03,East,96,0.0,2.0,64,0.00,,BKN110,0.00,VWS V14.01,2013-02-25 13:10:00,
2013-02-25 05:12:00,49.1,35.4,30.05,East,90,4.0,5.0,59,0.00,,SKC,0.00,VWS V14.01,2013-02-25 13:12:00,
2013-02-25 05:17:00,48.9,35.2,30.05,ESE,109,4.0,6.0,59,0.00,,SKC,0.00,VWS V14.01,2013-02-25 13:17:00,
2013-02-25 05:20:00,48.9,35.2,30.05,ESE,105,3.0,6.0,59,0.00,,SKC,0.00,VWS V14.01,2013-02-25 13:20:00,
2013-02-25 05:22:00,48.7,35.0,30.05,East,96,0.0,3.0,59,0.00,,SKC,0.00,VWS V14.01,2013-02-25 13:22:00,
2013-02-25 05:27:00,48.5,34.8,30.05,East,96,0.0,4.0,59,0.00,,SKC,0.00,VWS V14.01,2013-02-25 13:27:00,
2013-02-25 05:30:00,48.4,34.8,30.07,East,100,0.0,4.0,59,0.00,,SKC,0.00,VWS V14.01,2013-02-25 13:30:00,
2013-02-25 05:33:00,48.3,35.1,30.07,East,99,0.0,3.0,60,0.00,,SKC,0.00,VWS V14.01,2013-02-25 13:33:00,
2013-02-25 05:38:00,48.1,34.9,30.07,East,99,0.0,3.0,60,0.00,,SKC,0.00,VWS V14.01,2013-02-25 13:38:00,
2013-02-25 05:40:00,48.1,34.9,30.07,East,98,0.0,3.0,60,0.00,,SKC,0.00,VWS V14.01,2013-02-25 13:40:00,
2013-02-25 05:43:00,47.8,34.6,30.05,East,98,2.0,2.0,60,0.00,,SKC,0.00,VWS V14.01,2013-02-25 13:43:00,
2013-02-25 05:48:00,47.3,34.5,30.05,East,99,0.0,3.0,61,0.00,,SKC,0.00,VWS V14.01,2013-02-25 13:48:00,
2013-02-25 05:50:00,47.3,34.5,30.05,East,99,0.0,3.0,61,0.00,,SKC,0.00,VWS V14.01,2013-02-25 13:50:00,
2013-02-25 05:53:00,46.9,34.6,30.05,East,99,1.0,2.0,62,0.00,,SKC,0.00,VWS V14.01,2013-02-25 13:53:00,
2013-02-25 05:59:00,46.4,34.5,30.03,East,91,2.0,5.0,63,0.00,,SKC,0.00,VWS V14.01,2013-02-25 13:59:00,
2013-02-25 06:00:00,44.8,34.5,30.07,East,96,0.0,0.0,67,0.00,,BKN110,0.00,VWS V14.01,2013-02-25 14:00:00,
2013-02-25 06:04:00,46.3,34.8,30.03,East,98,0.0,2.0,64,0.00,,SCT100,0.00,VWS V14.01,2013-02-25 14:04:00,
2013-02-25 06:09:00,46.3,34.8,30.03,East,96,2.0,2.0,64,0.00,,SCT100,0.00,VWS V14.01,2013-02-25 14:09:00,
2013-02-25 06:10:00,46.3,34.8,30.03,East,96,0.0,2.0,64,0.00,,SKC,0.00,VWS V14.01,2013-02-25 14:10:00,
2013-02-25 06:14:00,46.2,34.7,30.05,East,96,0.0,4.0,64,0.00,,SCT100,0.00,VWS V14.01,2013-02-25 14:14:00,
2013-02-25 06:19:00,46.1,35.0,30.05,East,96,0.0,0.0,65,0.00,,SCT100,0.00,VWS V14.01,2013-02-25 14:19:00,
2013-02-25 06:20:00,46.1,34.6,30.05,East,96,0.0,4.0,64,0.00,,SKC,0.00,VWS V14.01,2013-02-25 14:20:00,
2013-02-25 06:24:00,45.9,34.8,30.05,East,96,0.0,2.0,65,0.00,,SCT100,0.00,VWS V14.01,2013-02-25 14:24:00,
2013-02-25 06:29:00,45.7,35.0,30.05,East,96,1.0,2.0,66,0.00,,SCT100,0.00,VWS V14.01,2013-02-25 14:29:00,
2013-02-25 06:30:00,44.7,35.5,30.08,East,96,0.0,0.0,70,0.00,,BKN110,0.00,VWS V14.01,2013-02-25 14:30:00,
2013-02-25 06:34:00,45.6,34.9,30.05,East,96,0.0,2.0,66,0.00,,SCT100,0.00,VWS V14.01,2013-02-25 14:34:00,
2013-02-25 06:39:00,45.4,34.7,30.05,East,96,2.0,2.0,66,0.00,,SCT100,0.00,VWS V14.01,2013-02-25 14:39:00,
2013-02-25 06:40:00,45.5,34.8,30.05,East,96,2.0,2.0,66,0.00,,SKC,0.00,VWS V14.01,2013-02-25 14:40:00,
2013-02-25 06:44:00,45.3,34.6,30.06,East,96,0.0,2.0,66,0.00,,SCT100,0.00,VWS V14.01,2013-02-25 14:44:00,
2013-02-25 06:50:00,45.2,34.9,30.06,East,96,0.0,0.0,67,0.00,,SCT100,0.00,VWS V14.01,2013-02-25 14:50:00,
2013-02-25 06:55:00,45.0,34.7,30.06,East,96,0.0,0.0,67,0.00,,SCT100,0.00,VWS V14.01,2013-02-25 14:55:00,
2013-02-25 07:00:00,44.8,34.5,30.07,East,96,0.0,0.0,67,0.00,,SCT100,0.00,VWS V14.01,2013-02-25 15:00:00,
2013-02-25 07:05:00,44.5,34.6,30.07,East,96,0.0,0.0,68,0.00,,SCT100,0.00,VWS V14.01,2013-02-25 15:05:00,
2013-02-25 07:10:00,44.4,34.5,30.07,East,96,0.0,0.0,68,0.00,,SCT100,0.00,VWS V14.01,2013-02-25 15:10:00,
2013-02-25 07:15:00,44.3,34.8,30.08,East,96,0.0,0.0,69,0.00,,SCT100,0.00,VWS V14.01,2013-02-25 15:15:00,
2013-02-25 07:20:00,44.4,34.9,30.08,East,96,0.0,0.0,69,0.00,,SCT100,0.00,VWS V14.01,2013-02-25 15:20:00,
2013-02-25 07:25:00,44.5,35.0,30.08,East,96,0.0,0.0,69,0.00,,SCT100,0.00,VWS V14.01,2013-02-25 15:25:00,
2013-02-25 07:30:00,44.7,35.5,30.08,East,96,0.0,0.0,70,0.00,,SCT100,0.00,VWS V14.01,2013-02-25 15:30:00,
2013-02-25 07:35:00,44.9,35.7,30.08,East,96,0.0,0.0,70,0.00,,SCT100,0.00,VWS V14.01,2013-02-25 15:35:00,
2013-02-25 07:40:00,45.2,36.0,30.08,East,96,0.0,0.0,70,0.00,,SCT100,0.00,VWS V14.01,2013-02-25 15:40:00,
2013-02-25 07:45:00,45.9,36.7,30.08,East,96,0.0,2.0,70,0.00,,SCT100,0.00,VWS V14.01,2013-02-25 15:45:00,
2013-02-25 07:50:00,46.6,36.6,30.08,South,182,0.0,2.0,68,0.00,,SCT100,0.00,VWS V14.01,2013-02-25 15:50:00,
2013-02-25 07:55:00,47.1,36.3,30.08,South,182,0.0,2.0,66,0.00,,SCT100,0.00,VWS V14.01,2013-02-25 15:55:00,
2013-02-25 08:00:00,47.8,36.6,30.08,South,183,0.0,1.0,65,0.00,,SCT170,0.00,VWS V14.01,2013-02-25 16:00:00,
2013-02-25 08:05:00,48.6,37.0,30.08,South,183,0.0,1.0,64,0.00,,SCT170,0.00,VWS V14.01,2013-02-25 16:05:00,
2013-02-25 08:10:00,49.2,36.8,30.08,South,183,0.0,2.0,62,0.00,,SCT170,0.00,VWS V14.01,2013-02-25 16:10:00,
2013-02-25 08:16:00,49.7,37.2,30.09,South,183,0.0,2.0,62,0.00,,SCT170,0.00,VWS V14.01,2013-02-25 16:16:00,
2013-02-25 08:20:00,50.2,37.3,30.09,South,183,0.0,2.0,61,0.00,,SKC,0.00,VWS V14.01,2013-02-25 16:20:00,
2013-02-25 08:21:00,50.5,38.0,30.09,South,183,0.0,1.0,62,0.00,,SCT170,0.00,VWS V14.01,2013-02-25 16:21:00,
2013-02-25 08:26:00,51.2,38.2,30.09,South,183,0.0,2.0,61,0.00,,SCT170,0.00,VWS V14.01,2013-02-25 16:26:00,
2013-02-25 08:30:00,51.5,37.7,30.09,South,183,0.0,2.0,59,0.00,,SKC,0.00,VWS V14.01,2013-02-25 16:30:00,
2013-02-25 08:31:00,51.7,37.8,30.09,South,183,0.0,1.0,59,0.00,,SCT170,0.00,VWS V14.01,2013-02-25 16:31:00,
2013-02-25 08:36:00,51.9,37.6,30.09,South,183,1.0,1.0,58,0.00,,SCT170,0.00,VWS V14.01,2013-02-25 16:36:00,
2013-02-25 08:40:00,52.0,38.1,30.09,South,183,0.0,1.0,59,0.00,,SKC,0.00,VWS V14.01,2013-02-25 16:40:00,
2013-02-25 08:41:00,52.3,38.0,30.09,South,183,0.0,0.0,58,0.00,,SCT170,0.00,VWS V14.01,2013-02-25 16:41:00,
2013-02-25 08:46:00,53.0,38.6,30.09,South,183,0.0,0.0,58,0.00,,SCT170,0.00,VWS V14.01,2013-02-25 16:46:00,
2013-02-25 08:50:00,53.5,40.0,30.09,South,183,0.0,0.0,60,0.00,,SKC,0.00,VWS V14.01,2013-02-25 16:50:00,
2013-02-25 08:51:00,54.2,38.9,30.09,South,183,0.0,0.0,56,0.00,,SCT170,0.00,VWS V14.01,2013-02-25 16:51:00,
2013-02-25 08:56:00,54.8,39.0,30.09,South,183,0.0,0.0,55,0.00,,SCT170,0.00,VWS V14.01,2013-02-25 16:56:00,
2013-02-25 09:00:00,55.0,39.6,30.09,South,183,0.0,0.0,56,0.00,,SKC,0.00,VWS V14.01,2013-02-25 17:00:00,
2013-02-25 09:01:00,55.2,39.3,30.09,South,183,0.0,1.0,55,0.00,,SCT170,0.00,VWS V14.01,2013-02-25 17:01:00,
2013-02-25 09:06:00,55.6,39.7,30.09,South,183,0.0,1.0,55,0.00,,SCT170,0.00,VWS V14.01,2013-02-25 17:06:00,
2013-02-25 09:10:00,55.9,39.5,30.09,South,183,0.0,1.0,54,0.00,,SKC,0.00,VWS V14.01,2013-02-25 17:10:00,
2013-02-25 09:12:00,56.2,39.8,30.09,South,183,1.0,2.0,54,0.00,,SCT170,0.00,VWS V14.01,2013-02-25 17:12:00,
2013-02-25 09:17:00,56.3,38.9,30.08,SSE,154,4.0,6.0,52,0.00,,SCT170,0.00,VWS V14.01,2013-02-25 17:17:00,
2013-02-25 09:20:00,56.3,39.4,30.08,SSE,155,2.0,6.0,53,0.00,,SKC,0.00,VWS V14.01,2013-02-25 17:20:00,
2013-02-25 09:22:00,56.5,39.6,30.08,SE,131,2.0,3.0,53,0.00,,SCT170,0.00,VWS V14.01,2013-02-25 17:22:00,
2013-02-25 09:27:00,56.8,38.9,30.08,SSE,150,0.0,8.0,51,0.00,,SCT170,0.00,VWS V14.01,2013-02-25 17:27:00,
2013-02-25 09:30:00,59.3,37.4,30.06,SSW,208,6.0,8.0,44,0.00,,FEW200,0.00,VWS V14.01,2013-02-25 17:30:00,
2013-02-25 09:32:00,56.8,39.4,30.07,ESE,117,2.0,5.0,52,0.00,,SCT170,0.00,VWS V14.01,2013-02-25 17:32:00,
2013-02-25 09:37:00,57.0,38.6,30.07,East,100,2.0,6.0,50,0.00,,SCT170,0.00,VWS V14.01,2013-02-25 17:37:00,
2013-02-25 09:40:00,57.1,39.2,30.07,SE,140,5.0,6.0,51,0.00,,SKC,0.00,VWS V14.01,2013-02-25 17:40:00,
2013-02-25 09:42:00,57.2,39.2,30.07,South,173,3.0,6.0,51,0.00,,SCT170,0.00,VWS V14.01,2013-02-25 17:42:00,
2013-02-25 09:47:00,57.3,38.3,30.07,SE,135,2.0,8.0,49,0.00,,SCT170,0.00,VWS V14.01,2013-02-25 17:47:00,
2013-02-25 09:50:00,57.3,38.3,30.07,SSE,154,4.0,8.0,49,0.00,,SKC,0.00,VWS V14.01,2013-02-25 17:50:00,
2013-02-25 09:52:00,57.4,38.4,30.07,ESE,113,4.0,5.0,49,0.00,,SCT170,0.00,VWS V14.01,2013-02-25 17:52:00,
2013-02-25 09:57:00,57.7,37.6,30.07,ESE,110,3.0,6.0,47,0.00,,SCT170,0.00,VWS V14.01,2013-02-25 17:57:00,
2013-02-25 10:00:00,57.7,36.0,30.06,SSE,150,2.0,6.0,44,0.00,,SKC,0.00,VWS V14.01,2013-02-25 18:00:00,
2013-02-25 10:02:00,58.0,36.2,30.06,SE,133,5.0,6.0,44,0.00,,FEW100,0.00,VWS V14.01,2013-02-25 18:02:00,
2013-02-25 10:08:00,57.8,36.6,30.06,ESE,114,2.0,8.0,45,0.00,,FEW100,0.00,VWS V14.01,2013-02-25 18:08:00,
2013-02-25 10:10:00,60.8,38.8,30.06,South,171,3.0,7.0,44,0.00,,BKN110,0.00,VWS V14.01,2013-02-25 18:10:00,
2013-02-25 10:13:00,58.2,36.4,30.06,South,180,7.0,15.0,44,0.00,,FEW100,0.00,VWS V14.01,2013-02-25 18:13:00,
2013-02-25 10:18:00,58.7,36.9,30.06,SE,125,5.0,15.0,44,0.00,,FEW100,0.00,VWS V14.01,2013-02-25 18:18:00,
2013-02-25 10:20:00,58.7,36.9,30.06,ESE,112,3.0,15.0,44,0.00,,SKC,0.00,VWS V14.01,2013-02-25 18:20:00,
2013-02-25 10:23:00,58.7,37.4,30.06,SSW,198,8.0,8.0,45,0.00,,FEW100,0.00,VWS V14.01,2013-02-25 18:23:00,
2013-02-25 10:28:00,59.2,37.9,30.06,SSE,154,1.0,8.0,45,0.00,,FEW100,0.00,VWS V14.01,2013-02-25 18:28:00,
2013-02-25 10:30:00,59.3,37.4,30.06,SSW,208,6.0,8.0,44,0.00,,SKC,0.00,VWS V14.01,2013-02-25 18:30:00,
2013-02-25 10:33:00,59.6,37.7,30.06,SSE,156,3.0,8.0,44,0.00,,FEW100,0.00,VWS V14.01,2013-02-25 18:33:00,
2013-02-25 10:38:00,59.9,38.0,30.06,South,177,1.0,8.0,44,0.00,,FEW100,0.00,VWS V14.01,2013-02-25 18:38:00,
2013-02-25 10:40:00,59.9,38.0,30.06,SE,133,1.0,8.0,44,0.00,,SKC,0.00,VWS V14.01,2013-02-25 18:40:00,
2013-02-25 10:43:00,60.4,37.8,30.07,SSW,196,3.0,7.0,43,0.00,,FEW100,0.00,VWS V14.01,2013-02-25 18:43:00,
2013-02-25 10:48:00,61.0,37.8,30.07,SSW,196,1.0,7.0,42,0.00,,FEW100,0.00,VWS V14.01,2013-02-25 18:48:00,
2013-02-25 10:50:00,61.0,38.4,30.07,SSW,196,0.0,7.0,43,0.00,,SKC,0.00,VWS V14.01,2013-02-25 18:50:00,
2013-02-25 10:53:00,61.3,38.6,30.07,South,191,0.0,6.0,43,0.00,,FEW100,0.00,VWS V14.01,2013-02-25 18:53:00,
2013-02-25 10:58:00,61.4,37.5,30.06,South,171,3.0,8.0,41,0.00,,FEW100,0.00,VWS V14.01,2013-02-25 18:58:00,
2013-02-25 11:00:00,61.3,37.4,30.06,SSE,162,3.0,8.0,41,0.00,,SKC,0.00,VWS V14.01,2013-02-25 19:00:00,
2013-02-25 11:03:00,61.0,38.4,30.06,South,169,3.0,6.0,43,0.00,,FEW100,0.00,VWS V14.01,2013-02-25 19:03:00,
2013-02-25 11:08:00,60.8,38.8,30.06,South,179,1.0,7.0,44,0.00,,FEW100,0.00,VWS V14.01,2013-02-25 19:08:00,
2013-02-25 11:10:00,62.5,38.5,30.05,SSW,200,2.0,9.0,41,0.00,,BKN110,0.00,VWS V14.01,2013-02-25 19:10:00,
2013-02-25 11:13:00,61.1,39.6,30.06,SSW,205,4.0,10.0,45,0.00,,FEW100,0.00,VWS V14.01,2013-02-25 19:13:00,
2013-02-25 11:18:00,61.3,39.2,30.06,South,183,4.0,10.0,44,0.00,,FEW100,0.00,VWS V14.01,2013-02-25 19:18:00,
2013-02-25 11:20:00,62.7,38.0,30.05,SSE,166,2.0,8.0,40,0.00,,BKN110,0.00,VWS V14.01,2013-02-25 19:20:00,
2013-02-25 11:23:00,61.5,39.4,30.06,South,177,4.0,7.0,44,0.00,,FEW100,0.00,VWS V14.01,2013-02-25 19:23:00,
2013-02-25 11:28:00,61.7,39.6,30.05,SSW,202,5.0,7.0,44,0.00,,FEW100,0.00,VWS V14.01,2013-02-25 19:28:00,
2013-02-25 11:30:00,61.7,39.6,30.05,South,189,2.0,7.0,44,0.00,,SKC,0.00,VWS V14.01,2013-02-25 19:30:00,
2013-02-25 11:33:00,61.6,39.5,30.05,South,187,0.0,8.0,44,0.00,,FEW100,0.00,VWS V14.01,2013-02-25 19:33:00,
2013-02-25 11:39:00,61.5,39.4,30.05,SSW,198,0.0,8.0,44,0.00,,FEW100,0.00,VWS V14.01,2013-02-25 19:39:00,
2013-02-25 11:40:00,61.5,39.4,30.05,SSW,198,0.0,8.0,44,0.00,,SKC,0.00,VWS V14.01,2013-02-25 19:40:00,
2013-02-25 11:44:00,61.6,40.1,30.05,SW,220,3.0,6.0,45,0.00,,FEW100,0.00,VWS V14.01,2013-02-25 19:44:00,
2013-02-25 11:49:00,62.0,39.9,30.05,SW,228,0.0,11.0,44,0.00,,FEW100,0.00,VWS V14.01,2013-02-25 19:49:00,
2013-02-25 11:50:00,62.0,39.9,30.05,SW,228,0.0,11.0,44,0.00,,SKC,0.00,VWS V14.01,2013-02-25 19:50:00,
2013-02-25 11:54:00,62.1,39.4,30.05,SSW,196,0.0,7.0,43,0.00,,FEW100,0.00,VWS V14.01,2013-02-25 19:54:00,
2013-02-25 11:59:00,62.1,40.0,30.05,SSE,150,0.0,7.0,44,0.00,,FEW100,0.00,VWS V14.01,2013-02-25 19:59:00,
2013-02-25 12:00:00,62.1,40.0,30.05,SSE,150,0.0,7.0,44,0.00,,SKC,0.00,VWS V14.01,2013-02-25 20:00:00,
2013-02-25 12:04:00,62.4,39.0,30.05,South,179,3.0,7.0,42,0.00,,FEW100,0.00,VWS V14.01,2013-02-25 20:04:00,
2013-02-25 12:09:00,62.5,38.5,30.05,SSW,200,2.0,9.0,41,0.00,,FEW100,0.00,VWS V14.01,2013-02-25 20:09:00,
2013-02-25 12:10:00,62.5,38.5,30.05,SSW,200,2.0,9.0,41,0.00,,SKC,0.00,VWS V14.01,2013-02-25 20:10:00,
2013-02-25 12:14:00,62.7,38.0,30.05,SSW,206,4.0,7.0,40,0.00,,FEW100,0.00,VWS V14.01,2013-02-25 20:14:00,
2013-02-25 12:19:00,62.7,38.0,30.05,SSE,166,1.0,4.0,40,0.00,,FEW100,0.00,VWS V14.01,2013-02-25 20:19:00,
2013-02-25 12:20:00,62.7,38.0,30.05,SSE,166,2.0,8.0,40,0.00,,SKC,0.00,VWS V14.01,2013-02-25 20:20:00,
2013-02-25 12:24:00,62.5,37.9,30.05,SE,125,2.0,5.0,40,0.00,,FEW100,0.00,VWS V14.01,2013-02-25 20:24:00,
2013-02-25 12:29:00,62.7,37.4,30.04,SSW,194,0.0,2.0,39,0.00,,FEW100,0.00,VWS V14.01,2013-02-25 20:29:00,
2013-02-25 12:30:00,62.6,37.3,30.04,SSW,193,2.0,8.0,39,0.00,,SKC,0.00,VWS V14.01,2013-02-25 20:30:00,
2013-02-25 12:34:00,63.3,38.0,30.04,SW,231,0.0,5.0,39,0.00,,FEW100,0.00,VWS V14.01,2013-02-25 20:34:00,
2013-02-25 12:39:00,64.0,38.6,30.04,South,171,5.0,5.0,39,0.00,,FEW100,0.00,VWS V14.01,2013-02-25 20:39:00,
2013-02-25 12:40:00,63.9,39.1,30.04,SSW,210,2.0,6.0,40,0.00,,SKC,0.00,VWS V14.01,2013-02-25 20:40:00,
2013-02-25 12:44:00,64.5,39.0,30.03,WSW,241,1.0,5.0,39,0.00,,FEW100,0.00,VWS V14.01,2013-02-25 20:44:00,
2013-02-25 12:49:00,65.0,38.8,30.03,South,186,1.0,3.0,38,0.00,,FEW100,0.00,VWS V14.01,2013-02-25 20:49:00,
2013-02-25 12:50:00,65.0,38.8,30.03,South,180,1.0,5.0,38,0.00,,SKC,0.00,VWS V14.01,2013-02-25 20:50:00,
2013-02-25 12:54:00,65.0,38.1,30.03,SW,226,3.0,7.0,37,0.00,,FEW100,0.00,VWS V14.01,2013-02-25 20:54:00,
2013-02-25 12:59:00,65.2,37.6,30.03,South,191,5.0,7.0,36,0.00,,FEW100,0.00,VWS V14.01,2013-02-25 20:59:00,
2013-02-25 13:00:00,65.2,37.6,30.03,SE,124,3.0,7.0,36,0.00,,SKC,0.00,VWS V14.01,2013-02-25 21:00:00,
2013-02-25 13:04:00,65.1,37.5,30.03,SW,235,0.0,7.0,36,0.00,,FEW100,0.00,VWS V14.01,2013-02-25 21:04:00,
2013-02-25 13:09:00,65.4,37.1,30.03,South,182,4.0,4.0,35,0.00,,FEW100,0.00,VWS V14.01,2013-02-25 21:09:00,
2013-02-25 13:10:00,65.4,37.1,30.03,South,183,3.0,7.0,35,0.00,,SKC,0.00,VWS V14.01,2013-02-25 21:10:00,
2013-02-25 13:14:00,65.2,36.2,30.03,SSW,212,2.0,7.0,34,0.00,,FEW100,0.00,VWS V14.01,2013-02-25 21:14:00,
2013-02-25 13:19:00,65.4,35.6,30.03,South,189,5.0,5.0,33,0.00,,FEW100,0.00,VWS V14.01,2013-02-25 21:19:00,
2013-02-25 13:20:00,65.4,35.6,30.03,SW,233,2.0,7.0,33,0.00,,SKC,0.00,VWS V14.01,2013-02-25 21:20:00,
2013-02-25 13:24:00,65.3,35.5,30.03,West,275,0.0,5.0,33,0.00,,FEW100,0.00,VWS V14.01,2013-02-25 21:24:00,
2013-02-25 13:29:00,65.3,35.5,30.03,SW,216,1.0,2.0,33,0.00,,FEW100,0.00,VWS V14.01,2013-02-25 21:29:00,
2013-02-25 13:30:00,66.3,34.0,30.02,West,272,4.0,6.0,30,0.00,,FEW200,0.00,VWS V14.01,2013-02-25 21:30:00,
2013-02-25 13:34:00,65.1,35.3,30.03,West,260,4.0,7.0,33,0.00,,FEW100,0.00,VWS V14.01,2013-02-25 21:34:00,
2013-02-25 13:39:00,65.4,36.3,30.03,West,271,1.0,1.0,34,0.00,,FEW100,0.00,VWS V14.01,2013-02-25 21:39:00,
2013-02-25 13:40:00,65.3,35.5,30.03,West,271,0.0,7.0,33,0.00,,SKC,0.00,VWS V14.01,2013-02-25 21:40:00,
2013-02-25 13:45:00,66.0,36.8,30.02,SW,231,0.0,4.0,34,0.00,,FEW100,0.00,VWS V14.01,2013-02-25 21:45:00,
2013-02-25 13:50:00,66.4,36.5,30.02,NW,323,4.0,4.0,33,0.00,,FEW100,0.00,VWS V14.01,2013-02-25 21:50:00,
2013-02-25 13:55:00,66.6,36.6,30.02,NW,309,2.0,7.0,33,0.00,,FEW100,0.00,VWS V14.01,2013-02-25 21:55:00,
2013-02-25 14:00:00,66.7,35.1,30.03,WNW,293,1.0,4.0,31,0.00,,FEW100,0.00,VWS V14.01,2013-02-25 22:00:00,
2013-02-25 14:05:00,66.7,35.9,30.03,SW,224,5.0,7.0,32,0.00,,FEW100,0.00,VWS V14.01,2013-02-25 22:05:00,
2013-02-25 14:10:00,66.8,35.2,30.03,NW,306,2.0,5.0,31,0.00,,FEW100,0.00,VWS V14.01,2013-02-25 22:10:00,
2013-02-25 14:15:00,66.8,34.4,30.02,WNW,295,0.0,7.0,30,0.00,,FEW100,0.00,VWS V14.01,2013-02-25 22:15:00,
2013-02-25 14:20:00,66.7,35.1,30.02,WNW,300,1.0,5.0,31,0.00,,FEW100,0.00,VWS V14.01,2013-02-25 22:20:00,
2013-02-25 14:25:00,66.5,34.1,30.02,West,278,2.0,6.0,30,0.00,,FEW100,0.00,VWS V14.01,2013-02-25 22:25:00,
2013-02-25 14:30:00,66.2,33.9,30.02,WNW,293,2.0,4.0,30,0.00,,FEW100,0.00,VWS V14.01,2013-02-25 22:30:00,
2013-02-25 14:35:00,65.7,33.5,30.02,NNW,335,0.0,7.0,30,0.00,,FEW100,0.00,VWS V14.01,2013-02-25 22:35:00,
2013-02-25 14:40:00,65.7,34.3,30.02,West,281,6.0,8.0,31,0.00,,FEW100,0.00,VWS V14.01,2013-02-25 22:40:00,
2013-02-25 14:45:00,65.4,34.8,30.02,West,260,2.0,8.0,32,0.00,,FEW100,0.00,VWS V14.01,2013-02-25 22:45:00,
2013-02-25 14:50:00,65.0,34.5,30.02,WNW,298,1.0,1.0,32,0.00,,FEW100,0.00,VWS V14.01,2013-02-25 22:50:00,
2013-02-25 14:55:00,65.2,35.4,30.02,WSW,258,1.0,6.0,33,0.00,,FEW100,0.00,VWS V14.01,2013-02-25 22:55:00,
2013-02-25 15:00:00,65.4,37.1,30.01,WNW,291,4.0,6.0,35,0.00,,SKC,0.00,VWS V14.01,2013-02-25 23:00:00,
2013-02-25 15:05:00,65.8,37.4,30.01,West,264,2.0,7.0,35,0.00,,SKC,0.00,VWS V14.01,2013-02-25 23:05:00,
2013-02-25 15:10:00,66.5,37.3,30.01,West,281,5.0,5.0,34,0.00,,SKC,0.00,VWS V14.01,2013-02-25 23:10:00,
2013-02-25 15:15:00,66.6,37.4,30.01,WNW,293,4.0,8.0,34,0.00,,SKC,0.00,VWS V14.01,2013-02-25 23:15:00,
2013-02-25 15:20:00,66.4,37.9,30.01,WSW,255,4.0,7.0,35,0.00,,SKC,0.00,VWS V14.01,2013-02-25 23:20:00,
2013-02-25 15:25:00,66.7,37.5,30.01,West,275,0.0,8.0,34,0.00,,SKC,0.00,VWS V14.01,2013-02-25 23:25:00,
2013-02-25 15:30:00,66.7,37.5,30.00,West,278,1.0,7.0,34,0.00,,SKC,0.00,VWS V14.01,2013-02-25 23:30:00,
2013-02-25 15:36:00,65.8,36.7,30.00,WNW,295,4.0,10.0,34,0.00,,SKC,0.00,VWS V14.01,2013-02-25 23:36:00,
2013-02-25 15:40:00,65.5,36.4,30.00,WNW,291,1.0,10.0,34,0.00,,SKC,0.00,VWS V14.01,2013-02-25 23:40:00,
2013-02-25 15:41:00,65.4,37.1,30.00,NNW,331,0.0,8.0,35,0.00,,SKC,0.00,VWS V14.01,2013-02-25 23:41:00,
2013-02-25 15:46:00,65.1,37.5,30.00,NW,305,6.0,8.0,36,0.00,,SKC,0.00,VWS V14.01,2013-02-25 23:46:00,
2013-02-25 15:50:00,64.8,37.2,30.00,West,260,5.0,8.0,36,0.00,,SKC,0.00,VWS V14.01,2013-02-25 23:50:00,
2013-02-25 15:51:00,64.8,37.2,30.00,WNW,284,4.0,8.0,36,0.00,,SKC,0.00,VWS V14.01,2013-02-25 23:51:00,
2013-02-25 15:56:00,64.4,36.9,30.00,NW,308,4.0,10.0,36,0.00,,SKC,0.00,VWS V14.01,2013-02-25 23:56:00,
2013-02-25 16:00:00,64.0,36.5,30.00,NW,306,2.0,10.0,36,0.00,,SKC,0.00,VWS V14.01,2013-02-26 00:00:00,
2013-02-25 16:01:00,63.8,36.4,30.00,NW,304,0.0,5.0,36,0.00,,SKC,0.00,VWS V14.01,2013-02-26 00:01:00,
2013-02-25 16:06:00,63.6,36.2,30.00,West,278,2.0,7.0,36,0.00,,SKC,0.00,VWS V14.01,2013-02-26 00:06:00,
2013-02-25 16:10:00,63.5,36.1,30.00,NW,306,2.0,7.0,36,0.00,,SKC,0.00,VWS V14.01,2013-02-26 00:10:00,
2013-02-25 16:11:00,63.3,35.9,30.00,NW,320,2.0,6.0,36,0.00,,SKC,0.00,VWS V14.01,2013-02-26 00:11:00,
2013-02-25 16:16:00,63.1,36.4,29.99,NW,309,1.0,7.0,37,0.00,,SKC,0.00,VWS V14.01,2013-02-26 00:16:00,
2013-02-25 16:20:00,63.1,36.4,29.99,NW,306,5.0,7.0,37,0.00,,SKC,0.00,VWS V14.01,2013-02-26 00:20:00,
2013-02-25 16:21:00,63.1,35.7,29.99,West,277,0.0,5.0,36,0.00,,SKC,0.00,VWS V14.01,2013-02-26 00:21:00,
2013-02-25 16:26:00,62.9,35.6,29.99,West,262,1.0,8.0,36,0.00,,SKC,0.00,VWS V14.01,2013-02-26 00:26:00,
2013-02-25 16:30:00,62.9,35.6,29.99,West,266,2.0,8.0,36,0.00,,SKC,0.00,VWS V14.01,2013-02-26 00:30:00,
2013-02-25 16:31:00,62.8,35.5,29.99,NW,306,4.0,7.0,36,0.00,,SKC,0.00,VWS V14.01,2013-02-26 00:31:00,
2013-02-25 16:36:00,62.4,34.4,29.99,NW,310,2.0,9.0,35,0.00,,SKC,0.00,VWS V14.01,2013-02-26 00:36:00,
2013-02-25 16:40:00,62.2,34.2,29.99,WNW,287,6.0,9.0,35,0.00,,SKC,0.00,VWS V14.01,2013-02-26 00:40:00,
2013-02-25 16:41:00,62.1,34.2,29.99,WNW,293,1.0,6.0,35,0.00,,SKC,0.00,VWS V14.01,2013-02-26 00:41:00,
2013-02-25 16:46:00,61.8,34.6,29.99,NW,306,1.0,6.0,36,0.00,,SKC,0.00,VWS V14.01,2013-02-26 00:46:00,
2013-02-25 16:50:00,61.7,34.5,29.99,WNW,284,6.0,6.0,36,0.00,,SKC,0.00,VWS V14.01,2013-02-26 00:50:00,
2013-02-25 16:51:00,61.7,33.8,29.99,West,276,0.0,6.0,35,0.00,,SKC,0.00,VWS V14.01,2013-02-26 00:51:00,
2013-02-25 16:56:00,61.5,34.3,29.99,WNW,300,2.0,7.0,36,0.00,,SKC,0.00,VWS V14.01,2013-02-26 00:56:00,
2013-02-25 17:00:00,61.5,35.0,29.99,WNW,293,0.0,7.0,37,0.00,,SKC,0.00,VWS V14.01,2013-02-26 01:00:00,
2013-02-25 17:01:00,61.3,34.8,29.99,WNW,288,0.0,4.0,37,0.00,,SKC,0.00,VWS V14.01,2013-02-26 01:01:00,
2013-02-25 17:06:00,61.1,34.7,29.99,NW,306,1.0,5.0,37,0.00,,SKC,0.00,VWS V14.01,2013-02-26 01:06:00,
2013-02-25 17:10:00,61.1,35.3,29.99,NW,304,6.0,6.0,38,0.00,,SKC,0.00,VWS V14.01,2013-02-26 01:10:00,
2013-02-25 17:11:00,61.0,35.2,29.99,NW,317,0.0,6.0,38,0.00,,SKC,0.00,VWS V14.01,2013-02-26 01:11:00,
2013-02-25 17:16:00,60.8,34.4,29.99,NW,316,0.0,7.0,37,0.00,,SKC,0.00,VWS V14.01,2013-02-26 01:16:00,
2013-02-25 17:20:00,60.7,34.3,29.99,NW,311,4.0,8.0,37,0.00,,SKC,0.00,VWS V14.01,2013-02-26 01:20:00,
2013-02-25 17:21:00,60.7,34.3,29.99,NW,312,1.0,6.0,37,0.00,,SKC,0.00,VWS V14.01,2013-02-26 01:21:00,
2013-02-25 17:26:00,60.5,34.8,29.99,NW,320,5.0,7.0,38,0.00,,SKC,0.00,VWS V14.01,2013-02-26 01:26:00,
2013-02-25 17:30:00,60.4,34.7,29.98,WNW,300,1.0,7.0,38,0.00,,SKC,0.00,VWS V14.01,2013-02-26 01:30:00,
2013-02-25 17:31:00,60.3,34.6,29.98,NW,323,5.0,5.0,38,0.00,,SKC,0.00,VWS V14.01,2013-02-26 01:31:00,
2013-02-25 17:37:00,60.1,34.4,29.98,NW,321,0.0,5.0,38,0.00,,SKC,0.00,VWS V14.01,2013-02-26 01:37:00,
2013-02-25 17:40:00,60.0,34.3,29.98,NW,321,1.0,5.0,38,0.00,,SKC,0.00,VWS V14.01,2013-02-26 01:40:00,
2013-02-25 17:42:00,59.8,34.2,29.98,NW,321,0.0,4.0,38,0.00,,SKC,0.00,VWS V14.01,2013-02-26 01:42:00,
2013-02-25 17:47:00,59.5,33.9,29.99,NW,309,2.0,5.0,38,0.00,,SKC,0.00,VWS V14.01,2013-02-26 01:47:00,
2013-02-25 17:50:00,59.4,33.8,29.99,NW,312,6.0,6.0,38,0.00,,SKC,0.00,VWS V14.01,2013-02-26 01:50:00,
2013-02-25 17:52:00,59.2,33.6,29.99,NW,310,0.0,6.0,38,0.00,,SKC,0.00,VWS V14.01,2013-02-26 01:52:00,
2013-02-25 17:57:00,58.9,33.4,29.99,NW,310,0.0,6.0,38,0.00,,SKC,0.00,VWS V14.01,2013-02-26 01:57:00,
2013-02-25 18:00:00,58.7,33.2,29.99,NW,310,0.0,6.0,38,0.00,,SKC,0.00,VWS V14.01,2013-02-26 02:00:00,
2013-02-25 18:02:00,58.5,33.0,29.99,NW,310,0.0,2.0,38,0.00,,SKC,0.00,VWS V14.01,2013-02-26 02:02:00,
2013-02-25 18:07:00,58.1,33.3,29.99,NW,310,0.0,2.0,39,0.00,,SKC,0.00,VWS V14.01,2013-02-26 02:07:00,
2013-02-25 18:10:00,58.0,33.2,29.99,NW,310,0.0,2.0,39,0.00,,SKC,0.00,VWS V14.01,2013-02-26 02:10:00,
2013-02-25 18:12:00,57.7,33.6,29.99,NW,310,0.0,2.0,40,0.00,,SKC,0.00,VWS V14.01,2013-02-26 02:12:00,
2013-02-25 18:17:00,57.3,33.8,29.99,NW,310,0.0,2.0,41,0.00,,SKC,0.00,VWS V14.01,2013-02-26 02:17:00,
2013-02-25 18:20:00,57.1,33.6,29.99,NW,310,0.0,4.0,41,0.00,,SKC,0.00,VWS V14.01,2013-02-26 02:20:00,
2013-02-25 18:22:00,56.8,33.4,29.99,NW,315,2.0,5.0,41,0.00,,SKC,0.00,VWS V14.01,2013-02-26 02:22:00,
2013-02-25 18:27:00,56.7,33.3,29.99,NW,316,2.0,5.0,41,0.00,,SKC,0.00,VWS V14.01,2013-02-26 02:27:00,
2013-02-25 18:30:00,56.7,33.3,29.99,NW,322,0.0,6.0,41,0.00,,SKC,0.00,VWS V14.01,2013-02-26 02:30:00,
2013-02-25 18:33:00,56.6,33.2,29.99,NW,322,1.0,4.0,41,0.00,,SKC,0.00,VWS V14.01,2013-02-26 02:33:00,
2013-02-25 18:38:00,56.5,33.7,29.99,NW,318,1.0,5.0,42,0.00,,SKC,0.00,VWS V14.01,2013-02-26 02:38:00,
2013-02-25 18:40:00,53.9,30.8,29.99,NW,320,0.0,4.0,41,0.00,,FEW200,0.00,VWS V14.01,2013-02-26 02:40:00,
2013-02-25 18:43:00,56.3,33.5,29.99,NW,318,5.0,5.0,42,0.00,,SKC,0.00,VWS V14.01,2013-02-26 02:43:00,
2013-02-25 18:48:00,56.1,33.3,29.99,NW,316,1.0,6.0,42,0.00,,SKC,0.00,VWS V14.01,2013-02-26 02:48:00,
2013-02-25 18:50:00,56.1,33.3,29.99,NW,316,0.0,6.0,42,0.00,,SKC,0.00,VWS V14.01,2013-02-26 02:50:00,
2013-02-25 18:53:00,55.9,33.2,29.99,NW,320,0.0,6.0,42,0.00,,SKC,0.00,VWS V14.01,2013-02-26 02:53:00,
2013-02-25 18:58:00,55.6,32.3,29.99,NW,317,0.0,6.0,41,0.00,,SKC,0.00,VWS V14.01,2013-02-26 02:58:00,
2013-02-25 19:00:00,55.6,32.3,29.99,NW,317,0.0,6.0,41,0.00,,SKC,0.00,VWS V14.01,2013-02-26 03:00:00,
2013-02-25 19:03:00,55.5,31.6,29.99,NW,320,0.0,5.0,40,0.00,,SKC,0.00,VWS V14.01,2013-02-26 03:03:00,
2013-02-25 19:08:00,55.5,31.6,29.99,NW,320,0.0,5.0,40,0.00,,SKC,0.00,VWS V14.01,2013-02-26 03:08:00,
2013-02-25 19:10:00,55.4,31.5,29.99,NW,320,0.0,5.0,40,0.00,,SKC,0.00,VWS V14.01,2013-02-26 03:10:00,
2013-02-25 19:13:00,55.3,31.4,29.99,NW,320,0.0,2.0,40,0.00,,SKC,0.00,VWS V14.01,2013-02-26 03:13:00,
2013-02-25 19:18:00,55.1,31.2,29.99,NW,320,0.0,2.0,40,0.00,,SKC,0.00,VWS V14.01,2013-02-26 03:18:00,
2013-02-25 19:20:00,55.1,31.8,29.99,NW,320,0.0,2.0,41,0.00,,SKC,0.00,VWS V14.01,2013-02-26 03:20:00,
2013-02-25 19:23:00,54.8,31.6,29.99,NW,320,0.0,0.0,41,0.00,,SKC,0.00,VWS V14.01,2013-02-26 03:23:00,
2013-02-25 19:28:00,54.6,31.4,29.99,NW,320,0.0,1.0,41,0.00,,SKC,0.00,VWS V14.01,2013-02-26 03:28:00,
2013-02-25 19:30:00,54.5,31.3,29.99,NW,320,0.0,1.0,41,0.00,,SKC,0.00,VWS V14.01,2013-02-26 03:30:00,
2013-02-25 19:33:00,54.2,31.0,29.99,NW,320,1.0,4.0,41,0.00,,SKC,0.00,VWS V14.01,2013-02-26 03:33:00,
2013-02-25 19:39:00,53.9,30.8,29.99,NW,320,0.0,4.0,41,0.00,,SKC,0.00,VWS V14.01,2013-02-26 03:39:00,
2013-02-25 19:40:00,53.9,30.8,29.99,NW,320,0.0,4.0,41,0.00,,SKC,0.00,VWS V14.01,2013-02-26 03:40:00,
2013-02-25 19:44:00,53.7,30.6,29.99,NW,320,0.0,0.0,41,0.00,,SKC,0.00,VWS V14.01,2013-02-26 03:44:00,
2013-02-25 19:49:00,53.4,30.9,29.99,NW,320,0.0,0.0,42,0.00,,SKC,0.00,VWS V14.01,2013-02-26 03:49:00,
2013-02-25 19:50:00,53.4,30.9,29.99,NW,320,0.0,0.0,42,0.00,,SKC,0.00,VWS V14.01,2013-02-26 03:50:00,
2013-02-25 19:54:00,53.1,30.6,29.99,NW,320,0.0,0.0,42,0.00,,SKC,0.00,VWS V14.01,2013-02-26 03:54:00,
2013-02-25 19:59:00,52.8,31.5,30.00,NW,320,0.0,0.0,44,0.00,,SKC,0.00,VWS V14.01,2013-02-26 03:59:00,
2013-02-25 20:00:00,52.8,31.5,30.00,NW,320,0.0,0.0,44,0.00,,SKC,0.00,VWS V14.01,2013-02-26 04:00:00,
2013-02-25 20:04:00,52.4,31.7,30.00,NW,320,0.0,0.0,45,0.00,,SKC,0.00,VWS V14.01,2013-02-26 04:04:00,
2013-02-25 20:09:00,52.0,31.9,30.00,NW,320,0.0,0.0,46,0.00,,SKC,0.00,VWS V14.01,2013-02-26 04:09:00,
2013-02-25 20:10:00,52.1,32.0,30.00,NW,320,0.0,0.0,46,0.00,,SKC,0.00,VWS V14.01,2013-02-26 04:10:00,
2013-02-25 20:14:00,51.6,31.5,30.00,NW,320,0.0,1.0,46,0.00,,SKC,0.00,VWS V14.01,2013-02-26 04:14:00,
2013-02-25 20:19:00,51.3,31.8,30.00,NW,320,0.0,0.0,47,0.00,,SKC,0.00,VWS V14.01,2013-02-26 04:19:00,
2013-02-25 20:20:00,48.8,32.4,30.00,NW,320,0.0,2.0,53,0.00,,FEW200,0.00,VWS V14.01,2013-02-26 04:20:00,
2013-02-25 20:24:00,51.2,31.7,30.00,NW,320,0.0,1.0,47,0.00,,SKC,0.00,VWS V14.01,2013-02-26 04:24:00,
2013-02-25 20:29:00,51.0,32.0,30.00,NW,320,0.0,1.0,48,0.00,,SKC,0.00,VWS V14.01,2013-02-26 04:29:00,
2013-02-25 20:30:00,48.6,33.2,30.00,NW,320,0.0,1.0,55,0.00,,FEW200,0.00,VWS V14.01,2013-02-26 04:30:00,
2013-02-25 20:34:00,50.7,31.7,30.00,NW,320,0.0,1.0,48,0.00,,SKC,0.00,VWS V14.01,2013-02-26 04:34:00,
2013-02-25 20:39:00,50.4,31.5,30.00,NW,320,0.0,0.0,48,0.00,,SKC,0.00,VWS V14.01,2013-02-26 04:39:00,
2013-02-25 20:40:00,48.2,32.3,30.00,NW,320,0.0,0.0,54,0.00,,FEW200,0.00,VWS V14.01,2013-02-26 04:40:00,
2013-02-25 20:45:00,50.1,31.7,30.00,NW,320,0.0,1.0,49,0.00,,SKC,0.00,VWS V14.01,2013-02-26 04:45:00,
2013-02-25 20:50:00,49.8,31.4,30.00,NW,320,0.0,0.0,49,0.00,,SKC,0.00,VWS V14.01,2013-02-26 04:50:00,
2013-02-25 20:55:00,49.5,31.1,30.00,NW,320,0.0,0.0,49,0.00,,SKC,0.00,VWS V14.01,2013-02-26 04:55:00,
2013-02-25 21:00:00,49.2,30.4,30.00,NW,320,0.0,1.0,48,0.00,,SKC,0.00,VWS V14.01,2013-02-26 05:00:00,
2013-02-25 21:01:00,49.2,30.9,30.00,NW,320,0.0,1.0,49,0.00,,SKC,0.00,VWS V14.01,2013-02-26 05:01:00,
2013-02-25 21:06:00,49.0,30.7,30.00,NW,320,0.0,1.0,49,0.00,,SKC,0.00,VWS V14.01,2013-02-26 05:06:00,
2013-02-25 21:10:00,48.8,31.0,30.00,NW,320,0.0,1.0,50,0.00,,SKC,0.00,VWS V14.01,2013-02-26 05:10:00,
2013-02-25 21:11:00,48.8,31.5,30.00,NW,320,0.0,2.0,51,0.00,,SKC,0.00,VWS V14.01,2013-02-26 05:11:00,
2013-02-25 21:16:00,48.7,32.3,30.00,NW,320,0.0,2.0,53,0.00,,SKC,0.00,VWS V14.01,2013-02-26 05:16:00,
2013-02-25 21:20:00,48.8,32.4,30.00,NW,320,0.0,2.0,53,0.00,,SKC,0.00,VWS V14.01,2013-02-26 05:20:00,
2013-02-25 21:21:00,48.8,32.9,30.00,NW,320,0.0,1.0,54,0.00,,SKC,0.00,VWS V14.01,2013-02-26 05:21:00,
2013-02-25 21:26:00,48.7,32.8,30.00,NW,320,0.0,1.0,54,0.00,,SKC,0.00,VWS V14.01,2013-02-26 05:26:00,
2013-02-25 21:30:00,48.6,33.2,30.00,NW,320,0.0,1.0,55,0.00,,SKC,0.00,VWS V14.01,2013-02-26 05:30:00,
2013-02-25 21:31:00,48.6,33.2,30.00,NW,320,0.0,0.0,55,0.00,,SKC,0.00,VWS V14.01,2013-02-26 05:31:00,
2013-02-25 21:36:00,48.4,33.0,30.00,NW,320,0.0,0.0,55,0.00,,SKC,0.00,VWS V14.01,2013-02-26 05:36:00,
2013-02-25 21:40:00,48.0,31.2,30.00,NW,325,2.0,3.0,52,0.00,,FEW200,0.00,VWS V14.01,2013-02-26 05:40:00,
2013-02-25 21:41:00,48.1,32.3,30.00,NW,320,0.0,1.0,54,0.00,,SKC,0.00,VWS V14.01,2013-02-26 05:41:00,
2013-02-25 21:46:00,47.9,32.1,30.00,NW,320,0.0,1.0,54,0.00,,SKC,0.00,VWS V14.01,2013-02-26 05:46:00,
2013-02-25 21:50:00,47.8,32.0,30.00,NW,320,0.0,1.0,54,0.00,,SKC,0.00,VWS V14.01,2013-02-26 05:50:00,
2013-02-25 21:51:00,47.7,31.4,30.00,NW,320,0.0,0.0,53,0.00,,SKC,0.00,VWS V14.01,2013-02-26 05:51:00,
2013-02-25 21:56:00,47.6,31.3,30.00,NW,320,0.0,1.0,53,0.00,,SKC,0.00,VWS V14.01,2013-02-26 05:56:00,
2013-02-25 22:00:00,47.6,31.3,30.00,NW,325,0.0,0.0,53,0.00,,BKN110,0.00,VWS V14.01,2013-02-26 06:00:00,
2013-02-25 22:01:00,47.5,31.2,30.00,NW,320,0.0,1.0,53,0.00,,SKC,0.00,VWS V14.01,2013-02-26 06:01:00,
2013-02-25 22:06:00,47.4,31.1,30.00,NW,320,0.0,2.0,53,0.00,,SKC,0.00,VWS V14.01,2013-02-26 06:06:00,
2013-02-25 22:10:00,47.4,31.1,30.00,NW,320,0.0,2.0,53,0.00,,SKC,0.00,VWS V14.01,2013-02-26 06:10:00,
2013-02-25 22:11:00,47.4,31.1,30.00,NW,320,0.0,1.0,53,0.00,,SKC,0.00,VWS V14.01,2013-02-26 06:11:00,
2013-02-25 22:16:00,47.4,31.1,29.99,NW,320,0.0,4.0,53,0.00,,SKC,0.00,VWS V14.01,2013-02-26 06:16:00,
2013-02-25 22:20:00,45.6,32.1,30.00,NW,325,0.0,0.0,59,0.00,,FEW200,0.00,VWS V14.01,2013-02-26 06:20:00,
2013-02-25 22:21:00,47.5,31.2,29.99,NW,320,0.0,1.0,53,0.00,,SKC,0.00,VWS V14.01,2013-02-26 06:21:00,
2013-02-25 22:26:00,47.6,31.3,29.99,NW,325,5.0,5.0,53,0.00,,SKC,0.00,VWS V14.01,2013-02-26 06:26:00,
2013-02-25 22:30:00,47.7,31.0,30.00,NW,325,0.0,5.0,52,0.00,,SKC,0.00,VWS V14.01,2013-02-26 06:30:00,
2013-02-25 22:31:00,47.8,31.0,30.00,NW,325,0.0,1.0,52,0.00,,SKC,0.00,VWS V14.01,2013-02-26 06:31:00,
2013-02-25 22:36:00,47.9,31.1,30.00,NW,325,2.0,3.0,52,0.00,,SKC,0.00,VWS V14.01,2013-02-26 06:36:00,
2013-02-25 22:40:00,43.5,32.5,30.00,NW,325,0.0,2.0,65,0.00,,BKN110,0.00,VWS V14.01,2013-02-26 06:40:00,
2013-02-25 22:41:00,48.1,31.3,30.00,NW,325,0.0,3.0,52,0.00,,SKC,0.00,VWS V14.01,2013-02-26 06:41:00,
2013-02-25 22:46:00,48.1,31.3,30.00,NW,325,1.0,3.0,52,0.00,,SKC,0.00,VWS V14.01,2013-02-26 06:46:00,
2013-02-25 22:50:00,48.1,31.3,30.00,NW,325,0.0,3.0,52,0.00,,SKC,0.00,VWS V14.01,2013-02-26 06:50:00,
2013-02-25 22:51:00,48.0,31.2,30.00,NW,325,0.0,0.0,52,0.00,,SKC,0.00,VWS V14.01,2013-02-26 06:51:00,
2013-02-25 22:56:00,47.8,31.5,30.00,NW,325,0.0,0.0,53,0.00,,SKC,0.00,VWS V14.01,2013-02-26 06:56:00,
2013-02-25 23:00:00,47.6,31.3,30.00,NW,325,0.0,0.0,53,0.00,,SKC,0.00,VWS V14.01,2013-02-26 07:00:00,
2013-02-25 23:01:00,47.3,31.5,30.00,NW,325,0.0,0.0,54,0.00,,SKC,0.00,VWS V14.01,2013-02-26 07:01:00,
2013-02-25 23:06:00,46.8,31.5,30.00,NW,325,0.0,0.0,55,0.00,,SKC,0.00,VWS V14.01,2013-02-26 07:06:00,
2013-02-25 23:10:00,41.7,31.9,30.00,NW,325,0.0,0.0,68,0.00,,FEW200,0.00,VWS V14.01,2013-02-26 07:10:00,
2013-02-25 23:11:00,46.3,31.9,30.00,NW,325,0.0,0.0,57,0.00,,SKC,0.00,VWS V14.01,2013-02-26 07:11:00,
2013-02-25 23:16:00,45.8,32.3,30.00,NW,325,0.0,0.0,59,0.00,,SKC,0.00,VWS V14.01,2013-02-26 07:16:00,
2013-02-25 23:20:00,41.1,32.1,30.00,NW,325,0.0,0.0,70,0.00,,FEW200,0.00,VWS V14.01,2013-02-26 07:20:00,
2013-02-25 23:21:00,45.2,32.6,30.00,NW,325,0.0,0.0,61,0.00,,SKC,0.00,VWS V14.01,2013-02-26 07:21:00,
2013-02-25 23:27:00,44.7,32.9,30.00,NW,325,0.0,0.0,63,0.00,,SKC,0.00,VWS V14.01,2013-02-26 07:27:00,
2013-02-25 23:30:00,44.5,32.7,30.00,NW,325,0.0,0.0,63,0.00,,SKC,0.00,VWS V14.01,2013-02-26 07:30:00,
2013-02-25 23:32:00,44.1,33.1,30.00,NW,325,0.0,2.0,65,0.00,,SKC,0.00,VWS V14.01,2013-02-26 07:32:00,
2013-02-25 23:37:00,43.6,32.6,30.00,NW,325,0.0,2.0,65,0.00,,SKC,0.00,VWS V14.01,2013-02-26 07:37:00,
2013-02-25 23:40:00,40.2,31.9,30.00,NW,325,0.0,0.0,72,0.00,,FEW200,0.00,VWS V14.01,2013-02-26 07:40:00,
2013-02-25 23:42:00,43.3,32.3,30.00,NW,325,0.0,0.0,65,0.00,,SKC,0.00,VWS V14.01,2013-02-26 07:42:00,
2013-02-25 23:47:00,43.0,32.1,30.00,NW,325,0.0,0.0,65,0.00,,SKC,0.00,VWS V14.01,2013-02-26 07:47:00,
2013-02-25 23:50:00,40.1,31.8,30.00,NW,325,0.0,0.0,72,0.00,,FEW200,0.00,VWS V14.01,2013-02-26 07:50:00,
2013-02-25 23:52:00,42.7,31.8,30.00,NW,325,0.0,0.0,65,0.00,,SKC,0.00,VWS V14.01,2013-02-26 07:52:00,
2013-02-25 23:57:00,42.4,32.2,30.00,NW,325,0.0,0.0,67,0.00,,SKC,0.00,VWS V14.01,2013-02-26 07:57:00,